SAS2047 ENTO-EKCH

Flight info

Callsign SAS2047
Flight time 0h 41m
Altitude 27000
Route BOMGU Y440 SABAK L617 LALIL L996 ERNOV T402 GOLMI
Aircraft A319/M-SDE3FGHIRWY/LB1

Departure

Time 2026-05-08 18:18
Airport Sandefjord Airport, Torp (ENTO)

Arrival

Time 2026-05-08 18:59
Airport Copenhagen Kastrup Airport (EKCH)
Time Latitude Longitude Altitude Speed Heading
2026-05-08 18:01 59.17961 10.25412 277 ft 0 kts 269°
2026-05-08 18:03 59.17961 10.25413 276 ft 0 kts 269°
2026-05-08 18:11 59.17961 10.25414 276 ft 2 kts 269°
2026-05-08 18:11 59.17961 10.25446 278 ft 2 kts 269°
2026-05-08 18:11 59.17962 10.25477 283 ft 2 kts 269°
2026-05-08 18:11 59.17961 10.25509 283 ft 2 kts 288°
2026-05-08 18:12 59.17953 10.25536 279 ft 2 kts 347°
2026-05-08 18:12 59.17948 10.25539 278 ft 0 kts 360°
2026-05-08 18:13 59.17964 10.25539 280 ft 6 kts
2026-05-08 18:14 59.18032 10.25537 277 ft 13 kts 359°
2026-05-08 18:14 59.18136 10.25605 281 ft 20 kts 49°
2026-05-08 18:14 59.18232 10.25814 278 ft 22 kts 48°
2026-05-08 18:14 59.18381 10.25871 281 ft 23 kts 359°
2026-05-08 18:15 59.18555 10.25866 283 ft 28 kts 359°
2026-05-08 18:15 59.18763 10.25862 285 ft 32 kts 359°
2026-05-08 18:15 59.18985 10.25856 286 ft 33 kts 359°
2026-05-08 18:15 59.19221 10.25852 292 ft 34 kts 359°
2026-05-08 18:16 59.19468 10.25846 293 ft 37 kts 359°
2026-05-08 18:16 59.19729 10.25840 295 ft 33 kts 359°
2026-05-08 18:16 59.19845 10.25906 297 ft 12 kts 45°
2026-05-08 18:16 59.19843 10.25835 297 ft 12 kts 194°
2026-05-08 18:17 59.19827 10.25836 298 ft 0 kts 177°
2026-05-08 18:17 59.19743 10.25839 299 ft 39 kts 179°
2026-05-08 18:17 59.19232 10.25851 293 ft 105 kts 179°
2026-05-08 18:17 59.18314 10.25865 323 ft 153 kts 181°
2026-05-08 18:18 59.17262 10.25894 952 ft 150 kts 181°
2026-05-08 18:18 59.16222 10.25924 1592 ft 149 kts 181°
2026-05-08 18:18 59.15179 10.25947 2155 ft 154 kts 182°
2026-05-08 18:18 59.14032 10.25968 2471 ft 176 kts 181°
2026-05-08 18:19 59.12722 10.25991 2799 ft 201 kts 181°
2026-05-08 18:19 59.11256 10.26406 3234 ft 229 kts 158°
2026-05-08 18:19 59.09956 10.28453 3829 ft 253 kts 133°
2026-05-08 18:19 59.08816 10.31037 4846 ft 256 kts 134°
2026-05-08 18:20 59.07641 10.33715 5907 ft 258 kts 134°
2026-05-08 18:20 59.06487 10.36344 6920 ft 260 kts 134°
2026-05-08 18:20 59.05307 10.39018 7899 ft 263 kts 134°
2026-05-08 18:20 59.04108 10.41732 8848 ft 266 kts 134°
2026-05-08 18:21 59.02894 10.44472 9790 ft 270 kts 134°
2026-05-08 18:21 59.01657 10.47256 10586 ft 278 kts 134°
2026-05-08 18:21 59.00335 10.50209 10904 ft 301 kts 134°
2026-05-08 18:21 58.98905 10.53395 11158 ft 324 kts 134°
2026-05-08 18:22 58.97384 10.56797 11556 ft 340 kts 134°
2026-05-08 18:22 58.95822 10.60296 12206 ft 346 kts 133°
2026-05-08 18:22 58.94234 10.63840 12892 ft 351 kts 133°
2026-05-08 18:22 58.92621 10.67437 13575 ft 357 kts 133°
2026-05-08 18:23 58.90937 10.71006 14223 ft 361 kts 139°
2026-05-08 18:23 58.88972 10.74036 14824 ft 363 kts 148°
2026-05-08 18:23 58.86863 10.76755 15434 ft 367 kts 148°
2026-05-08 18:23 58.84731 10.79508 16044 ft 371 kts 148°
2026-05-08 18:24 58.82574 10.82295 16633 ft 375 kts 147°
2026-05-08 18:24 58.80393 10.85109 17264 ft 379 kts 147°
2026-05-08 18:24 58.78187 10.87952 17897 ft 383 kts 147°
2026-05-08 18:24 58.75958 10.90824 18529 ft 387 kts 147°
2026-05-08 18:25 58.73737 10.93684 19079 ft 391 kts 147°
2026-05-08 18:25 58.71465 10.96603 19629 ft 394 kts 147°
2026-05-08 18:25 58.69171 10.99540 20193 ft 398 kts 148°
2026-05-08 18:25 58.66852 11.02506 20731 ft 401 kts 148°
2026-05-08 18:26 58.64522 11.05477 21253 ft 404 kts 148°
2026-05-08 18:26 58.62170 11.08468 21757 ft 407 kts 148°
2026-05-08 18:26 58.59799 11.11483 22264 ft 410 kts 148°
2026-05-08 18:26 58.57409 11.14525 22727 ft 413 kts 148°
2026-05-08 18:27 58.55004 11.17581 23202 ft 416 kts 148°
2026-05-08 18:27 58.53402 11.19611 23490 ft 419 kts 148°
2026-05-08 18:27 58.50132 11.23739 24038 ft 423 kts 148°
2026-05-08 18:27 58.47673 11.26838 24440 ft 425 kts 148°
2026-05-08 18:28 58.45196 11.29954 24841 ft 427 kts 148°
2026-05-08 18:28 58.42740 11.33038 25242 ft 429 kts 148°
2026-05-08 18:28 58.40237 11.36181 25644 ft 431 kts 148°
2026-05-08 18:28 58.37727 11.39332 26050 ft 433 kts 148°
2026-05-08 18:29 58.35206 11.42489 26449 ft 435 kts 148°
2026-05-08 18:29 58.32665 11.45657 26829 ft 437 kts 148°
2026-05-08 18:29 58.30113 11.48834 27197 ft 439 kts 148°
2026-05-08 18:29 58.27551 11.52022 27556 ft 441 kts 148°
2026-05-08 18:30 58.24979 11.55220 27914 ft 443 kts 148°
2026-05-08 18:30 58.22391 11.58435 28266 ft 445 kts 148°
2026-05-08 18:30 58.19791 11.61659 28606 ft 447 kts 148°
2026-05-08 18:30 58.17178 11.64896 28941 ft 449 kts 147°
2026-05-08 18:31 58.14584 11.68218 29275 ft 451 kts 146°
2026-05-08 18:31 58.12012 11.71645 29616 ft 453 kts 145°
2026-05-08 18:31 58.09453 11.75127 30092 ft 452 kts 145°
2026-05-08 18:31 58.06906 11.78616 30543 ft 450 kts 145°
2026-05-08 18:32 58.04399 11.82030 30949 ft 449 kts 145°
2026-05-08 18:32 58.01861 11.85442 31221 ft 448 kts 145°
2026-05-08 18:32 57.96803 11.92144 31279 ft 442 kts 146°
2026-05-08 18:33 57.91771 11.98775 31278 ft 441 kts 146°
2026-05-08 18:33 57.86744 12.05406 31276 ft 442 kts 146°
2026-05-08 18:34 57.81712 12.12025 31278 ft 442 kts 146°
2026-05-08 18:34 57.76289 12.17327 31277 ft 440 kts 162°
2026-05-08 18:35 57.70287 12.19523 31255 ft 441 kts 172°
2026-05-08 18:35 57.64187 12.21082 31265 ft 442 kts 172°
2026-05-08 18:36 57.58083 12.22655 31271 ft 443 kts 172°
2026-05-08 18:36 57.52003 12.24217 31270 ft 444 kts 172°
2026-05-08 18:37 57.45874 12.25776 31268 ft 444 kts 172°
2026-05-08 18:37 57.39742 12.27330 31270 ft 445 kts 172°
2026-05-08 18:38 57.36663 12.28106 30933 ft 447 kts 172°
2026-05-08 18:38 57.33586 12.28878 30393 ft 447 kts 172°
2026-05-08 18:38 57.30489 12.29653 29746 ft 449 kts 172°
2026-05-08 18:38 57.27388 12.30430 29126 ft 450 kts 172°
2026-05-08 18:39 57.24278 12.31214 28520 ft 451 kts 172°
2026-05-08 18:39 57.21194 12.31993 27939 ft 445 kts 172°
2026-05-08 18:39 57.18147 12.32758 27406 ft 439 kts 172°
2026-05-08 18:39 57.15129 12.33508 26880 ft 436 kts 173°
2026-05-08 18:40 57.12135 12.34249 26353 ft 432 kts 173°
2026-05-08 18:40 57.09164 12.34984 25860 ft 429 kts 173°
2026-05-08 18:40 57.06217 12.35712 25357 ft 426 kts 173°
2026-05-08 18:40 57.03286 12.36438 24869 ft 424 kts 173°
2026-05-08 18:41 57.00368 12.37160 24391 ft 421 kts 173°
2026-05-08 18:41 56.97474 12.37879 23921 ft 419 kts 173°
2026-05-08 18:41 56.94594 12.38597 23371 ft 416 kts 173°
2026-05-08 18:41 56.91737 12.39307 22818 ft 413 kts 173°
2026-05-08 18:42 56.88906 12.40005 22282 ft 409 kts 173°
2026-05-08 18:42 56.86095 12.40696 21742 ft 406 kts 173°
2026-05-08 18:42 56.83345 12.41370 21224 ft 402 kts 173°
2026-05-08 18:42 56.80580 12.42050 20711 ft 399 kts 173°
2026-05-08 18:43 56.77836 12.42722 20203 ft 396 kts 173°
2026-05-08 18:43 56.75119 12.43384 19704 ft 393 kts 173°
2026-05-08 18:43 56.72416 12.44041 19215 ft 390 kts 173°
2026-05-08 18:43 56.69739 12.44768 18733 ft 387 kts 171°
2026-05-08 18:44 56.67102 12.45712 18208 ft 385 kts 168°
2026-05-08 18:44 56.64505 12.46792 17660 ft 381 kts 167°
2026-05-08 18:44 56.61939 12.47918 17125 ft 378 kts 167°
2026-05-08 18:44 56.59397 12.49031 16598 ft 374 kts 167°
2026-05-08 18:45 56.56877 12.50107 16079 ft 370 kts 167°
2026-05-08 18:45 56.54370 12.51149 15562 ft 367 kts 167°
2026-05-08 18:45 56.51890 12.52159 15067 ft 364 kts 167°
2026-05-08 18:45 56.49434 12.53147 14569 ft 360 kts 167°
2026-05-08 18:46 56.46995 12.54123 14085 ft 357 kts 167°
2026-05-08 18:46 56.44587 12.55082 13542 ft 352 kts 167°
2026-05-08 18:46 56.42200 12.56030 13007 ft 350 kts 167°
2026-05-08 18:46 56.39863 12.56957 12484 ft 345 kts 167°
2026-05-08 18:47 56.37537 12.57881 11966 ft 339 kts 167°
2026-05-08 18:47 56.35250 12.58793 11480 ft 334 kts 167°
2026-05-08 18:47 56.33025 12.59683 11253 ft 321 kts 167°
2026-05-08 18:47 56.30887 12.60536 11136 ft 307 kts 167°
2026-05-08 18:48 56.28841 12.61349 10994 ft 295 kts 167°
2026-05-08 18:48 56.26868 12.62133 10850 ft 286 kts 167°
2026-05-08 18:48 56.24941 12.62899 10554 ft 282 kts 167°
2026-05-08 18:48 56.23029 12.63656 10240 ft 280 kts 167°
2026-05-08 18:49 56.21140 12.64405 9896 ft 277 kts 167°
2026-05-08 18:49 56.19254 12.65152 9513 ft 277 kts 167°
2026-05-08 18:49 56.17373 12.65896 9140 ft 276 kts 165°
2026-05-08 18:49 56.15504 12.66632 8816 ft 273 kts 165°
2026-05-08 18:50 56.13644 12.67364 8452 ft 273 kts 165°
2026-05-08 18:50 56.11797 12.68091 8110 ft 271 kts 166°
2026-05-08 18:50 56.09958 12.68813 7752 ft 270 kts 165°
2026-05-08 18:50 56.08147 12.69527 7420 ft 269 kts 165°
2026-05-08 18:51 56.06321 12.70246 7277 ft 268 kts 165°
2026-05-08 18:51 56.04497 12.70963 7289 ft 269 kts 165°
2026-05-08 18:51 56.02667 12.71681 7290 ft 269 kts 165°
2026-05-08 18:51 56.00835 12.72398 7291 ft 269 kts 165°
2026-05-08 18:52 55.99002 12.73112 7291 ft 269 kts 165°
2026-05-08 18:52 55.97173 12.73825 7264 ft 269 kts 165°
2026-05-08 18:52 55.95351 12.74522 6949 ft 267 kts 165°
2026-05-08 18:52 55.93535 12.75209 6623 ft 266 kts 165°
2026-05-08 18:53 55.91727 12.75885 6263 ft 265 kts 165°
2026-05-08 18:53 55.89928 12.76553 5940 ft 263 kts 165°
2026-05-08 18:53 55.88143 12.77215 5615 ft 261 kts 165°
2026-05-08 18:53 55.86392 12.77862 5294 ft 259 kts 165°
2026-05-08 18:54 55.84631 12.78517 4959 ft 258 kts 165°
2026-05-08 18:54 55.82879 12.79168 4615 ft 256 kts 165°
2026-05-08 18:54 55.81143 12.79801 4171 ft 254 kts 165°
2026-05-08 18:54 55.79417 12.80421 3754 ft 252 kts 165°
2026-05-08 18:55 55.76033 12.81616 2985 ft 244 kts 165°
2026-05-08 18:55 55.74395 12.82185 2721 ft 235 kts 165°
2026-05-08 18:55 55.72818 12.82724 2465 ft 227 kts 165°
2026-05-08 18:56 55.71296 12.83235 2203 ft 219 kts 166°
2026-05-08 18:56 55.69806 12.83036 2030 ft 217 kts 199°
2026-05-08 18:56 55.68692 12.81396 1990 ft 205 kts 237°
2026-05-08 18:56 55.68369 12.79081 2056 ft 184 kts 265°
2026-05-08 18:57 55.68233 12.77650 1978 ft 173 kts 255°
2026-05-08 18:57 55.67910 12.75730 1812 ft 154 kts 244°
2026-05-08 18:57 55.67346 12.74191 1462 ft 145 kts 222°
2026-05-08 18:57 55.66609 12.73052 1137 ft 138 kts 212°
2026-05-08 18:58 55.65879 12.71950 896 ft 137 kts 217°
2026-05-08 18:58 55.64941 12.70487 712 ft 135 kts 217°
2026-05-08 18:58 55.64234 12.69385 528 ft 135 kts 218°
2026-05-08 18:58 55.63762 12.68639 410 ft 134 kts 218°
2026-05-08 18:59 55.63064 12.67549 223 ft 133 kts 217°
2026-05-08 18:59 55.62367 12.66484 45 ft 132 kts 217°
2026-05-08 18:59 55.61778 12.65570 25 ft 78 kts 223°
2026-05-08 18:59 55.61537 12.65195 25 ft 37 kts 221°
2026-05-08 19:00 55.61346 12.64896 26 ft 32 kts 228°
2026-05-08 19:00 55.61243 12.64549 24 ft 34 kts 252°
2026-05-08 19:00 55.61193 12.64285 24 ft 20 kts 251°
2026-05-08 19:00 55.61204 12.64145 25 ft 11 kts 309°
2026-05-08 19:01 55.61287 12.64116 24 ft 15 kts 20°
2026-05-08 19:01 55.61392 12.64239 24 ft 21 kts 33°
2026-05-08 19:01 55.61537 12.64406 25 ft 29 kts 33°
2026-05-08 19:01 55.61706 12.64600 24 ft 28 kts 33°
2026-05-08 19:02 55.61870 12.64788 26 ft 30 kts 33°
2026-05-08 19:02 55.62005 12.64943 25 ft 18 kts 33°
2026-05-08 19:02 55.62128 12.65084 25 ft 24 kts 33°
2026-05-08 19:02 55.62261 12.65200 24 ft 18 kts
2026-05-08 19:03 55.62335 12.65332 24 ft 18 kts
2026-05-08 19:03 55.62482 12.65325 24 ft 24 kts 358°
2026-05-08 19:03 55.62623 12.65321 24 ft 13 kts
2026-05-08 19:03 55.62698 12.65388 25 ft 8 kts 26°
2026-05-08 19:04 55.62705 12.65394 24 ft 0 kts 26°